Location: Newark
(39.6867°N, 100.6772°W)
Time: 18:39:38
(UTC+00:00)

Vanguard 1 Rocket - Pass Details

Date: 27 October 2019
Orbit: 651 x 4226 km, 34.3° (Epoch: 17 November)

Event Time Altitude Azimuth Distance (km) Brightness Sun altitude
Rises 16:27:49 0° 251° (WSW) 4,623 10.9 30.7°
Reaches altitude 10° 16:30:15 10° 249° (WSW) 3,959 10.6 30.9°
Maximum altitude 16:41:28 70° 168° (SSE) 2,740 10.8 32.1°
Drops below altitude 10° 17:03:11 10° 91° (E) 7,082 12.3 34.0°
Sets 17:09:26 0° 90° (E) 8,355 12.6 34.5°
